Regional Weather Roundup
Issued by NWS

Home | Current Version | Previous Version | Text Only | Print | Product List | Glossary Off
Versions: 1 2 3 4 5 6 7 8 9 10 11 12 13 14 15 16 17 18 19 20 21 22 23 24 25 26 27 28 29 30 31 32 33 34 35 36 37 38 39 40 41 42 43 44 45 46 47 48 49 50

000
ASUS43 KIND 222209
RWRIN

WEATHER ROUNDUP FOR INDIANA
NATIONAL WEATHER SERVICE INDIANAPOLIS IN
600 PM EDT FRI AUG 22 2014

NOTE: "FAIR" INDICATES FEW OR NO CLOUDS BELOW 12,000 FEET WITH NO
SIGNIFICANT WEATHER AND/OR OBSTRUCTIONS TO VISIBILITY.

* - STATION DOES NOT REPORT WEATHER SUCH AS PRECIPITATION OR FOG.

+ - STATION NOT QUALITY CONTROLLED BY THE NATIONAL WEATHER SERVICE.
    USE DATA WITH CAUTION...ESPECIALLY DEWPOINT AND RELATIVE
    HUMIDITY OBSERVATIONS.

INZ001>003-010>013-019-020-222300-
NORTHWEST INDIANA

CITY           SKY/WX    TMP DP  RH WIND       PRES   REMARKS
GARY /AIRPORT/ CLOUDY    86  72  62 W6        29.94R
KNOX *+        PTSUNNY   83  72  69 CALM      29.94S
LA PORTE +     PTSUNNY   83  72  67 CALM      29.96R
MICHIGAN CITY+ PTSUNNY   82  73  74 NW3       29.95S
MONTICELLO +   PTSUNNY   82  74  77 CALM      29.95R
RENSSELAER +   PTSUNNY   82  75  78 W6        29.96S
VALPARAISO     CLOUDY    82  72  71 SW7       29.96R

$$

LMZ046-743>745-222300-
SOUTHERN LAKE MICHIGAN

STATION/POSITION TIME  TEMP WIND        PRES
                       AIR  DIR/SP/G
                 (UTC) (F)  (DEG/KT/KT) (MB)
MICHIGAN CITY    2200   82  340/  3/  4   N/A

$$

INZ004-005-014>016-021>024-222300-
NORTH CENTRAL INDIANA

CITY           SKY/WX    TMP DP  RH WIND       PRES   REMARKS
ELKHART        MOSUNNY   84  72  65 CALM      29.95S
GOSHEN         CLOUDY    86  72  62 CALM      29.95S
LOGANSPORT +   PTSUNNY   81  70  69 CALM      29.96F
PERU/GRISSOM   CLOUDY    81  78  90 SW6       29.97S
ROCHESTER +    PTSUNNY   82  73  74 SE3       29.96S
SOUTH BEND     MOSUNNY   84  72  67 NW3       29.95S
WARSAW +       CLOUDY    81  73  78 W5        29.96S

$$

INZ006>009-017-018-025>027-222300-
NORTHEAST INDIANA

CITY           SKY/WX    TMP DP  RH WIND       PRES   REMARKS
ANGOLA *+      MOSUNNY   84  72  65 NE6       29.96S
AUBURN +       PTSUNNY   84  70  61 NW3       29.97S
FORT WAYNE     PTSUNNY   84  73  69 VRB3      29.96F
HUNTINGTON +   CLOUDY    80  74  79 SW3       29.96S

$$

INZ028-029-035-036-043>045-051>053-222300-
WEST CENTRAL INDIANA

CITY           SKY/WX    TMP DP  RH WIND       PRES   REMARKS
GREENCASTLE +  MOSUNNY   81  73  78 CALM      29.98S
LAFAYETTE      PTSUNNY   83  73  72 SW6       29.95S
TERRE HAUTE    MOSUNNY   83  73  72 SE3       29.97S

$$

INZ030>032-037>040-046>048-054>057-064-065-222300-
CENTRAL INDIANA

CITY           SKY/WX    TMP DP  RH WIND       PRES   REMARKS
CP ATTERBURY + MOSUNNY   86  70  58 CALM      29.97F
FRANKFORT +    MOSUNNY   84  73  69 CALM      29.98S
GREENWOOD *+   MOSUNNY   86  73  66 W3        29.98S
INDIANAPOLIS   PTSUNNY   85  70  60 SW7       29.97S
-EAGLE CREEK   MOSUNNY   86  69  56 NW3       29.97S
KOKOMO *+      PTSUNNY   81  73  78 W6        29.97S
MARION +       CLOUDY    80  72  75 W7        29.98S
MT COMFORT *+  MOSUNNY   86  64  48 W8        29.98S
SHELBYVILLE    MOSUNNY   86  71  60 NW7       29.97S
ZIONSVILLE +   MOSUNNY   83  69  64 W3        29.99S

$$

INZ033-034-041-042-049-050-058-059-222300-
EAST CENTRAL INDIANA

CITY           SKY/WX    TMP DP  RH WIND       PRES   REMARKS
MUNCIE         PTSUNNY   82  71  69 NW8       29.97S

$$

INZ060-061-067>069-081>083-085>088-222300-
SOUTHWEST INDIANA

CITY           SKY/WX    TMP DP  RH WIND       PRES   REMARKS
EVANSVILLE     CLOUDY    88  74  63 SW8       29.95F HX  96
WASHINGTON +   PTSUNNY   85  78  79 CALM      29.96R HX  97

$$

INZ062-063-066-070>080-084-089>092-222300-
SOUTH CENTRAL AND SOUTHEAST INDIANA

CITY           SKY/WX    TMP DP  RH WIND       PRES   REMARKS
BLOOMINGTON    MOSUNNY   86  73  65 W5        29.98S

$$




USA.gov is the U.S. government's official web portal to all federal, state and local government web resources and services.